Location: Newark
(48.4472°N, 1.4892°E)
Time: 19:12:44
(UTC+00:00)

Transit 4A - Pass Details

Date: 28 November 2019
Orbit: 870 x 975 km, 66.8° (Epoch: 14 December)

Event Time Altitude Azimuth Distance (km) Brightness Sun altitude
Exits shadow 03:17:27 28° 85° (E) 1,592 9.5 -39.4°
Drops below altitude 10° 03:20:37 10° 110° (ESE) 2,521 10.7 -38.9°
Sets 03:23:15 0° 118° (ESE) 3,451 11.5 -38.5°
